Stündliche Wetter Otnozhenskiy

Heute, 11 April, Sonntag

Zeit Temperatur Niederschläge Wind Luftdruck Luftfeuchtigkeit
00:00 +5°C° 0 mm 3 m/S 758 mmHg 91%
01:00 +4°C° 0 mm 4 m/S 758 mmHg 91%
02:00 +4°C° 0 mm 4 m/S 758 mmHg 92%
03:00 +4°C° 0 mm 4 m/S 758 mmHg 91%
04:00 +3°C° 0 mm 4 m/S 758 mmHg 92%
05:00 +3°C° 0 mm 4 m/S 759 mmHg 93%
06:00 +3°C° 0 mm 4 m/S 759 mmHg 93%
07:00 +4°C° 0 mm 4 m/S 759 mmHg 91%
08:00 +5°C° 0 mm 5 m/S 759 mmHg 89%
09:00 +5°C° 0 mm 5 m/S 759 mmHg 87%
10:00 +6°C° 0 mm 5 m/S 759 mmHg 86%
11:00 +7°C° 0 mm 5 m/S 759 mmHg 84%
12:00 +8°C° 0 mm 5 m/S 759 mmHg 83%
13:00 +8°C° 0 mm 4 m/S 759 mmHg 80%
14:00 +10°C° 0 mm 4 m/S 758 mmHg 77%
15:00 +11°C° 0 mm 4 m/S 758 mmHg 77%
16:00 +11°C° 0 mm 4 m/S 758 mmHg 78%
17:00 +11°C° 0 mm 4 m/S 758 mmHg 79%
18:00 +11°C° 0 mm 3 m/S 758 mmHg 81%
19:00 +10°C° 0 mm 4 m/S 758 mmHg 84%
20:00 +10°C° 0 mm 4 m/S 758 mmHg 88%
21:00 +8°C° 0 mm 4 m/S 758 mmHg 91%
22:00 +8°C° 0 mm 5 m/S 757 mmHg 89%
23:00 +9°C° 0 mm 5 m/S 757 mmHg 87%

Morgen, 12 April, Montag

Zeit Temperatur Niederschläge Wind Luftdruck Luftfeuchtigkeit
00:00 +9°C° 0 mm 5 m/S 757 mmHg 85%
01:00 +9°C° 0 mm 5 m/S 757 mmHg 84%
02:00 +10°C° 0 mm 4 m/S 757 mmHg 84%
03:00 +10°C° 0 mm 4 m/S 757 mmHg 83%
04:00 +8°C° 0 mm 4 m/S 757 mmHg 81%
05:00 +8°C° 0 mm 4 m/S 757 mmHg 80%
06:00 +7°C° 0 mm 4 m/S 757 mmHg 78%
07:00 +11°C° 0 mm 4 m/S 757 mmHg 70%
08:00 +13°C° 0 mm 5 m/S 758 mmHg 62%
09:00 +15°C° 0 mm 6 m/S 758 mmHg 54%
10:00 +16°C° 0 mm 6 m/S 758 mmHg 51%
11:00 +17°C° 0 mm 7 m/S 758 mmHg 48%
12:00 +18°C° 0 mm 7 m/S 758 mmHg 45%
13:00 +20°C° 0 mm 7 m/S 758 mmHg 46%
14:00 +20°C° 0 mm 7 m/S 758 mmHg 46%
15:00 +21°C° 0 mm 7 m/S 758 mmHg 47%
16:00 +19°C° 0 mm 6 m/S 759 mmHg 52%
17:00 +19°C° 0 mm 4 m/S 759 mmHg 57%
18:00 +18°C° 0 mm 3 m/S 759 mmHg 61%
19:00 +17°C° 0 mm 3 m/S 759 mmHg 63%
20:00 +15°C° 0 mm 4 m/S 760 mmHg 64%
21:00 +14°C° 0 mm 5 m/S 760 mmHg 65%
22:00 +14°C° 0 mm 5 m/S 760 mmHg 67%
23:00 +13°C° 0 mm 4 m/S 760 mmHg 69%

übermorgen, 13 April, Dienstag

Zeit Temperatur Niederschläge Wind Luftdruck Luftfeuchtigkeit
00:00 +12°C° 0 mm 4 m/S 759 mmHg 71%
01:00 +12°C° 0 mm 4 m/S 759 mmHg 71%
02:00 +12°C° 0 mm 4 m/S 759 mmHg 71%
03:00 +11°C° 0 mm 4 m/S 759 mmHg 72%
04:00 +11°C° 0 mm 4 m/S 759 mmHg 72%
05:00 +10°C° 0 mm 4 m/S 759 mmHg 72%
06:00 +10°C° 0 mm 4 m/S 759 mmHg 71%
07:00 +11°C° 0 mm 4 m/S 760 mmHg 66%
08:00 +13°C° 0 mm 5 m/S 760 mmHg 60%
09:00 +14°C° 0 mm 5 m/S 760 mmHg 54%
10:00 +15°C° 0 mm 5 m/S 760 mmHg 54%
11:00 +15°C° 0 mm 5 m/S 760 mmHg 54%
12:00 +17°C° 0 mm 4 m/S 760 mmHg 54%
13:00 +17°C° 0 mm 4 m/S 760 mmHg 56%
14:00 +17°C° 0 mm 3 m/S 760 mmHg 57%
15:00 +17°C° 0 mm 3 m/S 759 mmHg 59%
16:00 +17°C° 0 mm 2 m/S 759 mmHg 63%
17:00 +16°C° 0 mm 2 m/S 759 mmHg 67%
18:00 +15°C° 0 mm 1 m/S 759 mmHg 72%
19:00 +15°C° 0.1 mm 2 m/S 759 mmHg 72%
20:00 +13°C° 0.1 mm 3 m/S 759 mmHg 72%
21:00 +13°C° 0.1 mm 3 m/S 758 mmHg 73%
22:00 +12°C° 0 mm 3 m/S 758 mmHg 72%
23:00 +12°C° 0 mm 4 m/S 758 mmHg 71%

14 April, Mittwoch

Zeit Temperatur Niederschläge Wind Luftdruck Luftfeuchtigkeit
00:00 +12°C° 0 mm 4 m/S 758 mmHg 70%
01:00 +11°C° 0 mm 4 m/S 758 mmHg 69%
02:00 +11°C° 0 mm 3 m/S 757 mmHg 68%
03:00 +10°C° 0 mm 3 m/S 757 mmHg 68%
04:00 +10°C° 0 mm 3 m/S 757 mmHg 66%
05:00 +9°C° 0 mm 3 m/S 757 mmHg 64%
06:00 +9°C° 0 mm 3 m/S 757 mmHg 63%
07:00 +11°C° 0 mm 4 m/S 757 mmHg 57%
08:00 +12°C° 0 mm 5 m/S 757 mmHg 51%
09:00 +14°C° 0 mm 5 m/S 757 mmHg 46%
10:00 +15°C° 0 mm 5 m/S 757 mmHg 43%
11:00 +17°C° 0 mm 5 m/S 756 mmHg 40%
12:00 +19°C° 0 mm 6 m/S 756 mmHg 37%
13:00 +20°C° 0 mm 5 m/S 756 mmHg 36%
14:00 +21°C° 0 mm 5 m/S 756 mmHg 34%
15:00 +21°C° 0 mm 5 m/S 755 mmHg 32%
16:00 +20°C° 0 mm 4 m/S 755 mmHg 37%
17:00 +20°C° 0 mm 4 m/S 755 mmHg 43%
18:00 +19°C° 0 mm 3 m/S 755 mmHg 49%
19:00 +17°C° 0 mm 3 m/S 755 mmHg 54%
20:00 +16°C° 0 mm 2 m/S 755 mmHg 59%
21:00 +14°C° 0 mm 2 m/S 756 mmHg 63%
22:00 +14°C° 0 mm 2 m/S 755 mmHg 64%
23:00 +13°C° 0 mm 2 m/S 755 mmHg 64%

15 April, Donnerstag

Zeit Temperatur Niederschläge Wind Luftdruck Luftfeuchtigkeit
00:00 +13°C° 0 mm 1 m/S 755 mmHg 64%
01:00 +12°C° 0 mm 1 m/S 755 mmHg 68%
02:00 +12°C° 0 mm 2 m/S 755 mmHg 71%
03:00 +10°C° 0 mm 2 m/S 755 mmHg 75%
04:00 +10°C° 0 mm 2 m/S 755 mmHg 75%
05:00 +11°C° 0 mm 1 m/S 755 mmHg 76%
06:00 +11°C° 0 mm 1 m/S 755 mmHg 77%
07:00 +12°C° 0 mm 2 m/S 755 mmHg 71%
08:00 +14°C° 0 mm 2 m/S 755 mmHg 66%
09:00 +16°C° 0 mm 2 m/S 755 mmHg 60%
10:00 +17°C° 0 mm 2 m/S 754 mmHg 55%
11:00 +18°C° 0 mm 2 m/S 754 mmHg 50%
12:00 +19°C° 0 mm 2 m/S 754 mmHg 46%
13:00 +19°C° 0 mm 2 m/S 754 mmHg 44%
14:00 +20°C° 0 mm 2 m/S 754 mmHg 42%
15:00 +20°C° 0 mm 2 m/S 753 mmHg 39%
16:00 +20°C° 0 mm 2 m/S 753 mmHg 43%
17:00 +19°C° 0 mm 2 m/S 753 mmHg 47%
18:00 +18°C° 0 mm 2 m/S 753 mmHg 51%
19:00 +17°C° 0 mm 2 m/S 753 mmHg 54%
20:00 +16°C° 0 mm 1 m/S 753 mmHg 56%
21:00 +15°C° 0 mm 1 m/S 753 mmHg 58%
22:00 +15°C° 0 mm 1 m/S 753 mmHg 61%
23:00 +14°C° 0 mm 1 m/S 753 mmHg 64%

16 April, Freitag

Zeit Temperatur Niederschläge Wind Luftdruck Luftfeuchtigkeit
00:00 +14°C° 0 mm 1 m/S 753 mmHg 67%
01:00 +13°C° 0 mm 2 m/S 753 mmHg 72%
02:00 +13°C° 0 mm 2 m/S 753 mmHg 76%
03:00 +12°C° 0 mm 2 m/S 753 mmHg 80%
04:00 +11°C° 0 mm 3 m/S 753 mmHg 84%
05:00 +10°C° 0 mm 3 m/S 753 mmHg 88%
06:00 +10°C° 0 mm 3 m/S 753 mmHg 92%
07:00 +11°C° 0 mm 3 m/S 754 mmHg 84%
08:00 +13°C° 0 mm 4 m/S 754 mmHg 77%
09:00 +14°C° 0 mm 4 m/S 754 mmHg 69%
10:00 +15°C° 0 mm 4 m/S 754 mmHg 63%
11:00 +16°C° 0 mm 5 m/S 754 mmHg 57%
12:00 +17°C° 0 mm 5 m/S 754 mmHg 52%
13:00 +18°C° 0 mm 4 m/S 754 mmHg 48%
14:00 +19°C° 0 mm 4 m/S 754 mmHg 45%
15:00 +19°C° 0 mm 4 m/S 754 mmHg 42%
16:00 +18°C° 0 mm 4 m/S 754 mmHg 46%
17:00 +17°C° 0 mm 3 m/S 754 mmHg 50%
18:00 +17°C° 0 mm 3 m/S 754 mmHg 55%
19:00 +14°C° 0 mm 4 m/S 754 mmHg 59%
20:00 +13°C° 0 mm 4 m/S 755 mmHg 63%
21:00 +10°C° 0 mm 5 m/S 755 mmHg 67%
22:00 +11°C° 0 mm 4 m/S 755 mmHg 70%
23:00 +11°C° 0 mm 4 m/S 755 mmHg 72%
Mehr zeigen

Wir brauchen deine Erlaubnis

Meteoprog und unser Service Anbieter werden persönliche Daten aufbewahren, so wie Cookies, Geräte Bezeichnung oder ähnliche Technologien von deinem Gerät und Prozess, so wie Persönliche Daten Inhalte und Werbungen, genauso wie social Media und den Verkehr zu analysieren.

  • Aufbewahrung und/oder Zugang zu deiner Geräte Informationen.

    Cookies, Geräte Bezeichnung oder andere Informationen, können aufbewahrt oder Zugang zu deinem Gerät erhalten, für den Grund, der oben angegeben wird.

  • Personalisierte Werbung und Inhalte, Messungen, Einblick in das Publikum und Produkt Entwicklung.

    Werbungen und Inhalte können personalisiert werden, basierend auf ein Profil. Mehr Daten können besser personalisierte Werbungen und Inhalte hinzufügen. Werbung und Inhalte können gezeigt und gemessen werden. Einblicke über das Publikum, welche die Werbung gesehen haben und den Inhalt, können abgeleitet werden. So wie Daten können genutzt werden, um es zu verbessern oder die Benutzer Erfahrung zu verbessern das System und die Software.

Wenn du “Ich stimme zu” klickst, erlaubst du uns, die Cookies zu benutzen die Geräte Bezeichnung, den Web oder ähnliche Technologien zu benutzen. Deine Settings, können in deinem Gerät bei deinem Browser geändert werden.

Für den bestimmten Zweck, berechtigten Interessen beruhen darauf, mehr als auf den Inhalt. Du kannst mehr darüber in unseren Privaten und Cookie Politik lesen.